Hourly Weather Roundup
Issued by NWS Central Illinois

Home | Current Version | Previous Version | Text Only | Print | Product List | Glossary On
Versions: 1 2 3 4 5 6 7 8 9 10 11 12 13 14 15 16 17 18 19 20 21 22 23 24 25 26 27 28 29 30 31 32 33 34 35 36 37 38 39 40 41 42 43 44 45 46 47 48 49 50
141
NZUS43 KILX 221210
HWRILX

Area Weather Roundup
National Weather Service Lincoln IL
700 AM CDT THU JUN 22 2017

NOTE:  "FAIR" indicates few or no clouds below 12,000 feet, with
       no sigificant weather and/or obstructions to visibility.


CITY           SKY/WX    TMP DP  RH WIND       PRES   REMARKS
Bloomington    CLOUDY    72  68  87 S14       29.91R
6HR MIN TEMP:  72; 6HR MAX TEMP:  76;

Champaign      CLOUDY    73  68  84 S14       29.93R
6HR MIN TEMP:  71; 6HR MAX TEMP:  75;

Danville       CLOUDY    73  68  84 SW8       29.92R
6HR MIN TEMP:  72; 6HR MAX TEMP:  76;

Decatur        SUNNY     73  69  87 S13       29.91S
6HR MIN TEMP:  69; 6HR MAX TEMP:  76;

Effingham      MOSUNNY   73  70  91 SE5       29.95F
6HR MIN TEMP:  71; 6HR MAX TEMP:  76;

Flora          CLOUDY    74  70  87 S6        29.95S
6HR MIN TEMP:  71; 6HR MAX TEMP:  75;

Galesburg      CLOUDY    71  66  85 S8        29.86S
6HR MIN TEMP:  70; 6HR MAX TEMP:  76;

Jacksonville   CLOUDY    73  68  83 S10       29.89R
6HR MIN TEMP:  71; 6HR MAX TEMP:  77;

Lacon          CLOUDY    74  68  81 SW7       29.85S
6HR MIN TEMP:  73; 6HR MAX TEMP:  78;

Lawrenceville  MOSUNNY   74  70  87 S9        29.96S
6HR MIN TEMP:  69; 6HR MAX TEMP:  74;

Litchfield     SUNNY     72  69  91 S8        29.91R
6HR MIN TEMP:  69; 6HR MAX TEMP:  73;

$$


CITY           SKY/WX    TMP DP  RH WIND       PRES   REMARKS
Lincoln        CLOUDY    72  70  94 S6        29.89F
6HR MIN TEMP:  72; 6HR MAX TEMP:  78;

Macomb         CLOUDY    72  67  83 S7        29.88R
6HR MIN TEMP:  68; 6HR MAX TEMP:  77;

Mattoon        SUNNY     73  70  90 S7        29.93R
6HR MIN TEMP:  71; 6HR MAX TEMP:  76;

Mt Carmel AP   PTSUNNY   75  68  80 S6        29.96S
6HR MIN TEMP:  70; 6HR MAX TEMP:  75;

Olney-Noble AP CLOUDY    73  73 100 S6        29.95S
Paris AP       SUNNY     72  70  94 S7        29.97R
6HR MIN TEMP:  67; 6HR MAX TEMP:  74;

Peoria         CLOUDY    73  69  87 S12       29.87S
6HR MIN TEMP:  72; 6HR MAX TEMP:  78;

Pontiac        MOSUNNY   75  71  88 S15       29.89S
6HR MIN TEMP:  73; 6HR MAX TEMP:  78;

Rantoul        MOSUNNY   75  70  85 S6        29.93R
6HR MIN TEMP:  73; 6HR MAX TEMP:  79;

Robinson       MOSUNNY   71  69  93 S6        29.96S
6HR MIN TEMP:  69; 6HR MAX TEMP:  72;

Springfield    CLOUDY    76  70  82 S9        29.89F
6HR MIN TEMP:  73; 6HR MAX TEMP:  79;

Taylorville    MOSUNNY   72  69  89 S7        29.91F
6HR MIN TEMP:  69; 6HR MAX TEMP:  74;

$$

...REGIONAL REPORTS...


CITY           SKY/WX    TMP DP  RH WIND       PRES   REMARKS
Chicago O`Hare CLOUDY    77  66  68 SW14      29.85S
Kankakee       CLOUDY    73  66  78 SW7       29.90R
Moline         MOSUNNY   74  66  76 CALM      29.82R
Mount Sterling CLOUDY    72  67  86 S6        29.87S
Mount Vernon   CLOUDY    75  70  84 S7        29.93S
Pittsfield     MOSUNNY   73  69  86 S8        29.89S
Quincy         CLOUDY    73  68  84 S9        29.86S
Rockford       LGT RAIN  76  66  71 SW7       29.87R
$$


CITY           SKY/WX    TMP DP  RH WIND       PRES   REMARKS
Burlington     CLOUDY    73  68  84 S12       29.83F
Cedar Rapids   CLOUDY    71  67  87 S9        29.77F
Des Moines     PTSUNNY   75  61  61 S13       29.72R
Kirksville     SUNNY     71  67  87 S9        29.85F
Ottumwa        MOSUNNY   73  65  75 S15       29.76F
St Louis       PTSUNNY   77  68  73 S9        29.88F
$$


CITY           SKY/WX    TMP DP  RH WIND       PRES   REMARKS
Terre Haute    MOSUNNY   74  67  78 S9        29.96S
Evansville     PTSUNNY   74  68  81 CALM      29.97S
Indianapolis   PTSUNNY   74  68  81 S12       29.97R
Lafayette      CLOUDY    73  69  87 SW7       29.93R
Madison        CLOUDY    69  67  93 CALM      29.80R
Milwaukee      CLOUDY    74  66  76 SW10      29.82R
$$






USA.gov is the U.S. government's official web portal to all federal, state and local government web resources and services.